• In Russia
  • List of Countries
  • For 7 days
  • Water Temperature
  • Satellite Maps
  • Weather Map
  • Weather Widgets
  • user-avatar
    Login

    Hourly Weather Lingura

    Today, 17 August, Friday

    Time Temperature Precipitation Wind Pressure Humidity
    00:00 +23°C° 0 mm 4 mps 751 mmHg 67%
    01:00 +22°C° 0 mm 4 mps 751 mmHg 71%
    02:00 +22°C° 0 mm 4 mps 751 mmHg 75%
    03:00 +21°C° 0 mm 4 mps 751 mmHg 79%
    04:00 +21°C° 0 mm 4 mps 751 mmHg 83%
    05:00 +20°C° 0 mm 4 mps 751 mmHg 87%
    06:00 +22°C° 0 mm 4 mps 751 mmHg 81%
    07:00 +23°C° 0 mm 4 mps 751 mmHg 75%
    08:00 +26°C° 0 mm 5 mps 751 mmHg 69%
    09:00 +28°C° 0 mm 4 mps 751 mmHg 59%
    10:00 +30°C° 0 mm 4 mps 751 mmHg 50%
    11:00 +34°C° 0 mm 4 mps 751 mmHg 41%
    12:00 +34°C° 0 mm 3 mps 751 mmHg 37%
    13:00 +35°C° 0 mm 3 mps 750 mmHg 33%
    14:00 +36°C° 0 mm 2 mps 750 mmHg 28%
    15:00 +35°C° 0 mm 2 mps 750 mmHg 30%
    16:00 +34°C° 0 mm 2 mps 750 mmHg 31%
    17:00 +33°C° 0 mm 1 mps 750 mmHg 33%
    18:00 +31°C° 0.1 mm 1 mps 750 mmHg 36%
    19:00 +30°C° 0.1 mm 2 mps 750 mmHg 39%
    20:00 +29°C° 0.1 mm 2 mps 750 mmHg 43%
    21:00 +28°C° 0 mm 2 mps 750 mmHg 47%
    22:00 +27°C° 0 mm 2 mps 750 mmHg 51%
    23:00 +26°C° 0 mm 3 mps 750 mmHg 56%

    Tomorrow, 18 August, Saturday

    Time Temperature Precipitation Wind Pressure Humidity
    00:00 +26°C° 0 mm 3 mps 750 mmHg 59%
    01:00 +25°C° 0 mm 2 mps 750 mmHg 63%
    02:00 +24°C° 0 mm 2 mps 750 mmHg 66%
    03:00 +24°C° 0 mm 2 mps 750 mmHg 68%
    04:00 +23°C° 0 mm 2 mps 750 mmHg 70%
    05:00 +23°C° 0 mm 2 mps 750 mmHg 72%
    06:00 +24°C° 0 mm 3 mps 751 mmHg 66%
    07:00 +26°C° 0 mm 3 mps 751 mmHg 61%
    08:00 +28°C° 0 mm 4 mps 751 mmHg 55%
    09:00 +30°C° 0 mm 4 mps 751 mmHg 48%
    10:00 +33°C° 0 mm 3 mps 751 mmHg 41%
    11:00 +35°C° 0 mm 3 mps 751 mmHg 34%
    12:00 +35°C° 0 mm 3 mps 751 mmHg 32%
    13:00 +35°C° 0 mm 2 mps 751 mmHg 30%
    14:00 +36°C° 0 mm 2 mps 750 mmHg 28%
    15:00 +35°C° 0 mm 2 mps 750 mmHg 29%
    16:00 +34°C° 0 mm 2 mps 750 mmHg 30%
    17:00 +32°C° 0 mm 2 mps 750 mmHg 31%
    18:00 +31°C° 0.3 mm 2 mps 751 mmHg 35%
    19:00 +29°C° 0.3 mm 2 mps 751 mmHg 40%
    20:00 +27°C° 0.3 mm 2 mps 751 mmHg 44%
    21:00 +27°C° 0.1 mm 1 mps 751 mmHg 45%
    22:00 +26°C° 0.1 mm 1 mps 751 mmHg 47%
    23:00 +25°C° 0.1 mm 1 mps 752 mmHg 48%

    Day after tomorrow, 19 August, Sunday

    Time Temperature Precipitation Wind Pressure Humidity
    00:00 +25°C° 0 mm 1 mps 752 mmHg 51%
    01:00 +25°C° 0 mm 2 mps 752 mmHg 53%
    02:00 +24°C° 0 mm 2 mps 752 mmHg 56%
    03:00 +24°C° 0 mm 2 mps 752 mmHg 60%
    04:00 +23°C° 0 mm 2 mps 752 mmHg 63%
    05:00 +23°C° 0 mm 2 mps 751 mmHg 67%
    06:00 +24°C° 0 mm 2 mps 752 mmHg 63%
    07:00 +26°C° 0 mm 3 mps 752 mmHg 59%
    08:00 +27°C° 0 mm 3 mps 752 mmHg 55%
    09:00 +29°C° 0 mm 3 mps 752 mmHg 49%
    10:00 +31°C° 0 mm 3 mps 752 mmHg 43%
    11:00 +34°C° 0 mm 3 mps 752 mmHg 38%
    12:00 +34°C° 0 mm 2 mps 752 mmHg 35%
    13:00 +35°C° 0 mm 2 mps 751 mmHg 32%
    14:00 +35°C° 0 mm 2 mps 751 mmHg 30%
    15:00 +35°C° 0 mm 2 mps 751 mmHg 31%
    16:00 +34°C° 0 mm 2 mps 751 mmHg 32%
    17:00 +33°C° 0 mm 1 mps 751 mmHg 33%
    18:00 +31°C° 0.1 mm 2 mps 751 mmHg 38%
    19:00 +30°C° 0.1 mm 2 mps 751 mmHg 42%
    20:00 +28°C° 0.1 mm 2 mps 751 mmHg 47%
    21:00 +27°C° 0.2 mm 2 mps 751 mmHg 51%
    22:00 +26°C° 0.2 mm 2 mps 751 mmHg 55%
    23:00 +25°C° 0.2 mm 1 mps 751 mmHg 59%

    20 August, Monday

    Time Temperature Precipitation Wind Pressure Humidity
    00:00 +25°C° 0.3 mm 2 mps 751 mmHg 62%
    01:00 +24°C° 0.3 mm 2 mps 751 mmHg 65%
    02:00 +24°C° 0.3 mm 2 mps 751 mmHg 67%
    03:00 +24°C° 0.2 mm 2 mps 751 mmHg 71%
    04:00 +23°C° 0.2 mm 2 mps 751 mmHg 75%
    05:00 +21°C° 0.2 mm 2 mps 751 mmHg 79%
    06:00 +24°C° 0.1 mm 3 mps 751 mmHg 75%
    07:00 +25°C° 0.1 mm 3 mps 752 mmHg 70%
    08:00 +26°C° 0.1 mm 4 mps 752 mmHg 66%
    09:00 +28°C° 0 mm 4 mps 752 mmHg 58%
    10:00 +30°C° 0 mm 4 mps 752 mmHg 51%
    11:00 +33°C° 0 mm 4 mps 752 mmHg 43%
    12:00 +33°C° 0 mm 4 mps 752 mmHg 40%
    13:00 +34°C° 0 mm 3 mps 751 mmHg 37%
    14:00 +34°C° 0 mm 3 mps 751 mmHg 34%
    15:00 +34°C° 0 mm 3 mps 751 mmHg 36%
    16:00 +32°C° 0 mm 2 mps 751 mmHg 37%
    17:00 +32°C° 0 mm 2 mps 751 mmHg 39%
    18:00 +30°C° 0 mm 3 mps 751 mmHg 41%
    19:00 +29°C° 0 mm 3 mps 752 mmHg 43%
    20:00 +28°C° 0 mm 3 mps 752 mmHg 45%
    21:00 +26°C° 0.1 mm 3 mps 752 mmHg 48%
    22:00 +25°C° 0.1 mm 2 mps 752 mmHg 50%
    23:00 +24°C° 0.1 mm 2 mps 752 mmHg 53%

    21 August, Tuesday

    Time Temperature Precipitation Wind Pressure Humidity
    00:00 +24°C° 0 mm 2 mps 752 mmHg 55%
    01:00 +23°C° 0 mm 2 mps 752 mmHg 56%
    02:00 +23°C° 0 mm 1 mps 752 mmHg 58%
    03:00 +22°C° 0 mm 1 mps 752 mmHg 61%
    04:00 +22°C° 0 mm 1 mps 752 mmHg 64%
    05:00 +22°C° 0 mm 1 mps 752 mmHg 67%
    06:00 +23°C° 0 mm 1 mps 753 mmHg 64%
    07:00 +25°C° 0 mm 2 mps 753 mmHg 60%
    08:00 +27°C° 0 mm 2 mps 753 mmHg 57%
    09:00 +28°C° 0 mm 2 mps 753 mmHg 51%
    10:00 +30°C° 0 mm 2 mps 753 mmHg 45%
    11:00 +32°C° 0 mm 1 mps 753 mmHg 39%
    12:00 +32°C° 0 mm 1 mps 753 mmHg 36%
    13:00 +33°C° 0 mm 1 mps 753 mmHg 34%
    14:00 +33°C° 0 mm 1 mps 752 mmHg 31%
    15:00 +33°C° 0 mm 1 mps 752 mmHg 30%
    16:00 +34°C° 0 mm 2 mps 752 mmHg 30%
    17:00 +34°C° 0 mm 2 mps 752 mmHg 29%
    18:00 +31°C° 0 mm 2 mps 752 mmHg 33%
    19:00 +29°C° 0 mm 2 mps 753 mmHg 36%
    20:00 +27°C° 0 mm 3 mps 753 mmHg 39%
    21:00 +26°C° 0 mm 2 mps 753 mmHg 39%
    22:00 +25°C° 0 mm 2 mps 753 mmHg 39%
    23:00 +24°C° 0 mm 2 mps 753 mmHg 38%

    22 August, Wednesday

    Time Temperature Precipitation Wind Pressure Humidity
    00:00 +24°C° 0 mm 2 mps 753 mmHg 39%
    01:00 +23°C° 0 mm 1 mps 753 mmHg 40%
    02:00 +23°C° 0 mm 1 mps 753 mmHg 40%
    03:00 +22°C° 0 mm 1 mps 753 mmHg 42%
    04:00 +22°C° 0 mm 1 mps 753 mmHg 44%
    05:00 +22°C° 0 mm 1 mps 753 mmHg 46%
    06:00 +24°C° 0 mm 1 mps 754 mmHg 44%
    07:00 +26°C° 0 mm 1 mps 754 mmHg 41%
    08:00 +28°C° 0 mm 1 mps 754 mmHg 39%
    09:00 +29°C° 0 mm 1 mps 754 mmHg 34%
    10:00 +31°C° 0 mm 1 mps 754 mmHg 28%
    11:00 +33°C° 0 mm 1 mps 754 mmHg 23%
    12:00 +34°C° 0 mm 1 mps 753 mmHg 21%
    13:00 +35°C° 0 mm 2 mps 753 mmHg 20%
    14:00 +36°C° 0 mm 2 mps 753 mmHg 19%
    15:00 +36°C° 0 mm 2 mps 752 mmHg 19%
    16:00 +36°C° 0 mm 2 mps 752 mmHg 19%
    17:00 +36°C° 0 mm 2 mps 752 mmHg 19%
    18:00 +33°C° 0 mm 3 mps 752 mmHg 23%
    19:00 +30°C° 0 mm 3 mps 752 mmHg 26%
    20:00 +27°C° 0 mm 3 mps 753 mmHg 29%
    21:00 +26°C° 0 mm 2 mps 753 mmHg 31%
    22:00 +25°C° 0 mm 2 mps 753 mmHg 32%
    23:00 +24°C° 0 mm 1 mps 753 mmHg 34%
    Show more